GW0349 Weather Reports


time (UTC)temp
F
wind
direction
speed
knots
gust
knots
rain 1hr
in
rain 24hr
in
rain mn
in
humidity
%
barometer
mb
20260906071611 73 0 0.0 1.7 0.00 0.02 0.00 90 1011.2
20260906070110 73 103 0.9 1.7 0.00 0.02 0.00 89 1011.2
20260906064600 74 352 0.9 3.5 0.00 0.02 0.00 88 1011.5
20260906063102 74 315 1.7 4.3 0.00 0.02 0.00 88 1011.9
20260906061558 74 0 0.9 3.5 0.00 0.02 0.00 89 1012.2
20260906060056 74 0 0.9 4.3 0.00 0.02 0.00 90 1012.2
20260906054601 74 0 0.0 4.3 0.00 0.02 0.00 90 1012.4
20260906053057 74 360 2.6 5.2 0.00 0.02 0.00 90 1012.5
20260906051557 74 327 2.6 5.2 0.00 0.02 0.00 91 1012.7
20260906050132 73 355 0.0 1.7 0.00 0.02 0.00 93 1012.8
20260906044558 73 341 1.7 2.6 0.00 0.02 0.00 93 1012.9
20260906043108 73 0 0.0 0.9 0.00 0.02 0.00 93 1012.8
20260906041555 73 0 0.0 0.9 0.00 0.02 0.00 93 1012.8
20260906040112 73 0 0.0 1.7 0.00 0.02 0.00 92 1013.0
20260906034559 73 0 0.0 0.0 0.00 0.02 0.02 93 1013.1
20260906033056 73 0 0.0 0.0 0.00 0.02 0.02 93 1013.1
20260906031556 74 0 0.0 0.9 0.00 0.02 0.02 91 1013.2
20260906030134 74 0 0.0 0.9 0.00 0.02 0.02 90 1013.0
20260906024603 75 0 0.0 0.0 0.00 0.02 0.02 90 1012.9
20260906023103 75 0 0.0 0.0 0.00 0.02 0.02 89 1012.8
20260906021613 75 0 0.0 0.0 0.00 0.02 0.02 89 1012.5
20260906020107 76 0 0.0 1.7 0.00 0.02 0.02 88 1012.6
20260906014604 76 239 0.0 1.7 0.00 0.02 0.02 87 1012.7
20260906013058 77 0 0.0 2.6 0.00 0.02 0.02 85 1012.5
20260906011601 77 351 1.7 2.6 0.00 0.02 0.02 85 1012.3
20260906010059 78 0 0.0 0.0 0.00 0.02 0.02 84 1012.2
20260906004557 78 0 0.0 0.0 0.00 0.02 0.02 86 1012.1
20260906003106 79 0 0.0 0.0 0.00 0.02 0.02 84 1012.0
20260906001557 81 0 0.0 0.0 0.00 0.02 0.02 79 1011.8
20260906000057 82 0 0.0 0.0 0.00 0.02 0.02 74 1011.4
20260905234614 83 0 0.0 1.7 0.00 0.02 0.02 72 1011.3
20260905233104 84 230 0.0 1.7 0.00 0.02 0.02 72 1011.4
20260905231609 85 230 0.9 3.5 0.00 0.02 0.02 71 1011.3
20260905230108 85 261 2.6 4.3 0.00 0.02 0.02 69 1011.4
20260905224610 86 305 1.7 3.5 0.00 0.02 0.02 67 1011.2
20260905223107 86 19 0.0 3.5 0.00 0.02 0.02 68 1011.3
20260905221555 86 11 1.7 5.2 0.00 0.02 0.02 67 1011.3
20260905220055 86 324 0.9 3.5 0.00 0.02 0.02 67 1011.3
20260905214610 85 0 0.9 3.5 0.00 0.02 0.02 68 1011.6
20260905213106 83 303 0.9 2.6 0.00 0.02 0.02 69 1012.1
20260905211556 82 211 0.9 4.3 0.00 0.02 0.02 71 1012.2
20260905210100 82 219 2.6 4.3 0.00 0.02 0.02 71 1012.1
20260905204605 80 232 2.6 7.0 0.00 0.02 0.02 75 1012.2
20260905203105 79 247 3.5 7.8 0.00 0.02 0.02 79 1012.3
20260905201608 78 239 2.6 7.0 0.00 0.02 0.02 84 1012.3
20260905200059 78 0 0.9 2.6 0.00 0.02 0.02 79 1012.3
20260905194604 77 284 0.9 2.6 0.00 0.02 0.02 81 1013.1
20260905193058 77 292 0.9 3.5 0.01 0.02 0.02 81 1013.2
20260905191612 77 279 0.9 4.3 0.02 0.02 0.02 86 1012.2
20260905184614 76 0 0.0 4.3 0.02 0.02 0.02 87 1011.7
20260905183106 75 108 1.7 7.0 0.01 0.01 0.01 87 1012.0
20260905181604 77 109 4.3 19.1 0.00 0.00 0.00 82 1012.5
20260905180110 89 306 11.3 20.0 0.00 0.00 0.00 55 1013.1
20260905174607 93 314 5.2 10.4 0.00 0.00 0.00 55 1012.7
20260905173113 94 338 3.5 11.3 0.00 0.00 0.00 56 1013.0
20260905171605 94 254 3.5 9.6 0.00 0.00 0.00 58 1013.2
20260905170106 93 309 2.6 12.2 0.00 0.00 0.00 54 1013.3
20260905164606 93 9 1.7 9.6 0.00 0.00 0.00 56 1013.6
20260905163108 92 219 4.3 8.7 0.00 0.00 0.00 62 1013.8
20260905161604 92 333 2.6 8.7 0.00 0.00 0.00 62 1014.1
20260905160131 91 259 3.5 6.1 0.00 0.00 0.00 64 1014.3
20260905154604 90 223 2.6 7.0 0.00 0.00 0.00 68 1014.1
20260905153059 88 190 1.7 7.0 0.00 0.00 0.00 69 1014.1
20260905151602 88 222 4.3 7.8 0.00 0.00 0.00 73 1014.1
20260905150057 87 232 2.6 5.2 0.00 0.00 0.00 73 1014.1
20260905144606 86 265 3.5 7.0 0.00 0.00 0.00 75 1014.2
20260905143058 85 178 2.6 7.0 0.00 0.00 0.00 78 1014.1
20260905141610 84 250 3.5 7.0 0.00 0.00 0.00 80 1014.0
20260905140107 83 242 2.6 5.2 0.00 0.00 0.00 81 1014.0
20260905134605 82 253 3.5 6.1 0.00 0.00 0.00 82 1014.3
20260905133101 81 251 1.7 6.1 0.00 0.00 0.00 84 1014.5
20260905131600 80 281 1.7 5.2 0.00 0.00 0.00 83 1014.2
20260905130058 79 318 0.9 4.3 0.00 0.00 0.00 87 1014.3
20260905124605 77 313 1.7 3.5 0.00 0.00 0.00 90 1014.4
20260905123102 76 224 1.7 3.5 0.00 0.00 0.00 92 1014.5
20260905121606 75 216 1.7 3.5 0.00 0.00 0.00 93 1014.5
20260905120107 74 0 0.0 0.0 0.00 0.00 0.00 94 1014.2
20260905114636 73 0 0.0 0.0 0.00 0.00 0.00 94 1014.1
20260905113102 73 0 0.0 0.0 0.00 0.00 0.00 95 1013.9
20260905111558 73 0 0.0 0.0 0.00 0.00 0.00 95 1013.8
20260905110056 73 0 0.0 0.0 0.00 0.00 0.00 95 1013.6
20260905104559 73 0 0.0 0.0 0.00 0.00 0.00 95 1013.4
20260905103105 73 0 0.0 0.0 0.00 0.00 0.00 94 1013.4
20260905101604 73 0 0.0 0.0 0.00 0.00 0.00 94 1013.2
20260905100113 74 0 0.0 0.0 0.00 0.00 0.00 94 1013.1
20260905094607 73 0 0.0 1.7 0.00 0.00 0.00 93 1013.2
20260905093104 74 244 0.0 1.7 0.00 0.00 0.00 93 1013.3
20260905091615 74 0 0.0 0.0 0.00 0.00 0.00 92 1013.2
20260905090058 74 0 0.0 0.0 0.00 0.00 0.00 92 1013.3
20260905084556 75 0 0.0 0.0 0.00 0.00 0.00 92 1013.4
20260905083104 75 0 0.0 0.0 0.00 0.00 0.00 92 1013.5
20260905081605 75 0 0.0 0.0 0.00 0.00 0.00 92 1013.4
20260905080059 75 0 0.0 2.6 0.00 0.00 0.00 91 1013.7
20260905074603 75 0 0.0 0.0 0.00 0.00 0.00 91 1013.7
20260905073110 75 0 0.0 0.9 0.00 0.00 0.00 91 1013.8